DLH279 EDDH-EDDB

Flight info

Callsign DLH279
Flight time 0h 54m
Altitude 23000
Route RAMAR6G RAMAR Z998 PITEN L619 VIBIS T209 OGBER OGBER1R
Aircraft A320/M-SDE3FGHIRWY/LB1

Departure

Time 2026-05-06 18:04
Airport Hamburg Helmut Schmidt Airport (EDDH)

Arrival

Time 2026-05-06 18:58
Airport Berlin Brandenburg Airport (EDDB)
Time Latitude Longitude Altitude Speed Heading
2026-05-06 17:26 53.63294 10.00359 46 ft 0 kts 86°
2026-05-06 17:52 53.63294 10.00347 51 ft 3 kts 86°
2026-05-06 17:52 53.63292 10.00309 51 ft 3 kts 86°
2026-05-06 17:53 53.63290 10.00270 51 ft 3 kts 96°
2026-05-06 17:53 53.63294 10.00245 51 ft 0 kts 131°
2026-05-06 17:53 53.63299 10.00235 45 ft 0 kts 148°
2026-05-06 17:53 53.63303 10.00230 45 ft 3 kts 163°
2026-05-06 17:54 53.63283 10.00240 47 ft 1 kts 170°
2026-05-06 17:56 53.63282 10.00241 48 ft 1 kts 170°
2026-05-06 17:56 53.63190 10.00261 48 ft 21 kts 176°
2026-05-06 17:57 53.63060 10.00259 51 ft 16 kts 196°
2026-05-06 17:57 53.63011 10.00200 51 ft 8 kts 215°
2026-05-06 17:57 53.62969 10.00152 51 ft 7 kts 212°
2026-05-06 17:57 53.62932 10.00115 50 ft 6 kts 210°
2026-05-06 17:58 53.62901 10.00086 49 ft 4 kts 209°
2026-05-06 17:58 53.62878 10.00063 47 ft 4 kts 215°
2026-05-06 17:58 53.62863 10.00032 50 ft 3 kts 237°
2026-05-06 17:58 53.62854 10.00004 50 ft 2 kts 241°
2026-05-06 17:59 53.62849 9.99990 50 ft 0 kts 241°
2026-05-06 17:59 53.62847 9.99983 48 ft 4 kts 241°
2026-05-06 17:59 53.62840 9.99959 50 ft 0 kts 245°
2026-05-06 18:02 53.62829 9.99918 49 ft 18 kts 245°
2026-05-06 18:03 53.62843 9.99766 49 ft 12 kts 328°
2026-05-06 18:03 53.63035 9.99588 49 ft 66 kts 333°
2026-05-06 18:03 53.63641 9.99070 50 ft 127 kts 333°
2026-05-06 18:03 53.64536 9.98301 330 ft 143 kts 336°
2026-05-06 18:04 53.65410 9.97542 848 ft 143 kts 336°
2026-05-06 18:04 53.66301 9.96775 1350 ft 144 kts 339°
2026-05-06 18:04 53.67226 9.95991 1668 ft 159 kts 340°
2026-05-06 18:04 53.68309 9.95108 1809 ft 187 kts 345°
2026-05-06 18:05 53.69634 9.94687 2148 ft 202 kts
2026-05-06 18:05 53.71060 9.94717 2857 ft 207 kts
2026-05-06 18:05 53.72492 9.94952 3611 ft 207 kts 21°
2026-05-06 18:05 53.73736 9.96157 4286 ft 213 kts 45°
2026-05-06 18:06 53.74593 9.98321 4655 ft 235 kts 64°
2026-05-06 18:06 53.75334 10.00918 4964 ft 253 kts 64°
2026-05-06 18:06 53.76101 10.03611 5002 ft 254 kts 64°
2026-05-06 18:06 53.76868 10.06299 5009 ft 254 kts 64°
2026-05-06 18:07 53.77635 10.08990 5008 ft 254 kts 64°
2026-05-06 18:07 53.78404 10.11680 5008 ft 253 kts 64°
2026-05-06 18:07 53.79175 10.14369 5010 ft 254 kts 64°
2026-05-06 18:07 53.79948 10.17061 5036 ft 256 kts 64°
2026-05-06 18:08 53.80736 10.19809 5837 ft 260 kts 63°
2026-05-06 18:08 53.81528 10.22568 6767 ft 261 kts 63°
2026-05-06 18:08 53.82326 10.25354 7591 ft 265 kts 63°
2026-05-06 18:08 53.83138 10.28195 8394 ft 270 kts 63°
2026-05-06 18:09 53.83910 10.31133 9198 ft 276 kts 69°
2026-05-06 18:09 53.84355 10.34309 9742 ft 286 kts 81°
2026-05-06 18:09 53.84381 10.37738 9870 ft 294 kts 94°
2026-05-06 18:09 53.83972 10.41264 9890 ft 322 kts 101°
2026-05-06 18:10 53.83452 10.44998 9892 ft 328 kts 101°
2026-05-06 18:10 53.82931 10.48774 9896 ft 329 kts 102°
2026-05-06 18:10 53.82418 10.52531 9888 ft 326 kts 101°
2026-05-06 18:10 53.81904 10.56293 10175 ft 330 kts 101°
2026-05-06 18:11 53.81388 10.60063 11045 ft 330 kts 102°
2026-05-06 18:11 53.80871 10.63855 11807 ft 333 kts 103°
2026-05-06 18:11 53.80308 10.67677 12546 ft 337 kts 108°
2026-05-06 18:11 53.79401 10.71342 13284 ft 338 kts 120°
2026-05-06 18:12 53.78174 10.74747 13969 ft 341 kts 124°
2026-05-06 18:12 53.76901 10.78168 14573 ft 346 kts 124°
2026-05-06 18:12 53.75613 10.81641 15144 ft 351 kts 124°
2026-05-06 18:12 53.74300 10.85187 15680 ft 358 kts 124°
2026-05-06 18:13 53.72971 10.88776 16257 ft 363 kts 124°
2026-05-06 18:13 53.71509 10.92263 16848 ft 364 kts 134°
2026-05-06 18:13 53.69668 10.95197 17450 ft 365 kts 146°
2026-05-06 18:13 53.67537 10.97515 18060 ft 366 kts 152°
2026-05-06 18:14 53.65340 10.99746 18593 ft 370 kts 152°
2026-05-06 18:14 53.63130 11.01996 19122 ft 373 kts 152°
2026-05-06 18:14 53.60900 11.04268 19659 ft 376 kts 152°
2026-05-06 18:14 53.58726 11.06746 20210 ft 381 kts 141°
2026-05-06 18:15 53.56800 11.09754 20755 ft 384 kts 139°
2026-05-06 18:15 53.54853 11.12855 21305 ft 387 kts 138°
2026-05-06 18:15 53.52910 11.16012 21847 ft 390 kts 137°
2026-05-06 18:15 53.50967 11.19216 22383 ft 393 kts 137°
2026-05-06 18:16 53.49016 11.22444 22789 ft 395 kts 137°
2026-05-06 18:16 53.47065 11.25670 22867 ft 387 kts 137°
2026-05-06 18:16 53.45169 11.28801 22872 ft 379 kts 138°
2026-05-06 18:16 53.43286 11.31893 22874 ft 379 kts 138°
2026-05-06 18:17 53.41399 11.34973 22875 ft 378 kts 139°
2026-05-06 18:17 53.39510 11.38042 22868 ft 378 kts 139°
2026-05-06 18:17 53.37616 11.41107 22864 ft 378 kts 140°
2026-05-06 18:17 53.35726 11.44163 22865 ft 378 kts 140°
2026-05-06 18:18 53.33835 11.47222 22866 ft 378 kts 140°
2026-05-06 18:18 53.31946 11.50279 22869 ft 378 kts 140°
2026-05-06 18:18 53.30056 11.53336 22867 ft 378 kts 140°
2026-05-06 18:18 53.28194 11.56349 22780 ft 367 kts 140°
2026-05-06 18:19 53.26369 11.59300 22367 ft 362 kts 140°
2026-05-06 18:19 53.24567 11.62206 21962 ft 358 kts 140°
2026-05-06 18:19 53.22783 11.65078 21551 ft 354 kts 140°
2026-05-06 18:19 53.21016 11.67919 21164 ft 351 kts 140°
2026-05-06 18:20 53.19265 11.70728 20781 ft 348 kts 140°
2026-05-06 18:20 53.17529 11.73509 20399 ft 345 kts 140°
2026-05-06 18:20 53.15803 11.76265 20011 ft 342 kts 140°
2026-05-06 18:20 53.14089 11.79012 19636 ft 341 kts 140°
2026-05-06 18:21 53.12400 11.81756 19248 ft 339 kts 140°
2026-05-06 18:21 53.10732 11.84512 18880 ft 336 kts 140°
2026-05-06 18:21 53.09080 11.87250 18523 ft 334 kts 140°
2026-05-06 18:21 53.07436 11.89968 18173 ft 333 kts 140°
2026-05-06 18:22 53.05798 11.92673 17765 ft 331 kts 140°
2026-05-06 18:22 53.04170 11.95356 17361 ft 329 kts 140°
2026-05-06 18:22 53.02545 11.98027 16962 ft 327 kts 140°
2026-05-06 18:22 53.00951 12.00641 16575 ft 326 kts 140°
2026-05-06 18:23 52.99340 12.03276 16187 ft 325 kts 140°
2026-05-06 18:23 52.97732 12.05896 15801 ft 323 kts 140°
2026-05-06 18:23 52.96125 12.08507 15424 ft 322 kts 140°
2026-05-06 18:23 52.94523 12.11102 15050 ft 321 kts 140°
2026-05-06 18:24 52.92926 12.13680 14681 ft 320 kts 140°
2026-05-06 18:24 52.91331 12.16249 14310 ft 319 kts 140°
2026-05-06 18:24 52.89740 12.18802 13950 ft 318 kts 140°
2026-05-06 18:24 52.88153 12.21343 13569 ft 317 kts 140°
2026-05-06 18:25 52.86563 12.23874 13168 ft 316 kts 140°
2026-05-06 18:25 52.84976 12.26378 12775 ft 315 kts 140°
2026-05-06 18:25 52.83384 12.28849 12383 ft 313 kts 140°
2026-05-06 18:25 52.81789 12.31299 11991 ft 312 kts 141°
2026-05-06 18:26 52.80203 12.33727 11601 ft 311 kts 140°
2026-05-06 18:26 52.78620 12.36146 11222 ft 309 kts 140°
2026-05-06 18:26 52.77046 12.38555 10832 ft 308 kts 140°
2026-05-06 18:26 52.75482 12.40949 10470 ft 306 kts 140°
2026-05-06 18:27 52.73927 12.43334 10105 ft 305 kts 140°
2026-05-06 18:27 52.72385 12.45703 9852 ft 299 kts 140°
2026-05-06 18:27 52.70901 12.47984 9831 ft 284 kts 140°
2026-05-06 18:27 52.69495 12.50144 9842 ft 268 kts 140°
2026-05-06 18:28 52.68159 12.52190 9833 ft 258 kts 140°
2026-05-06 18:28 52.66845 12.54195 9837 ft 257 kts 140°
2026-05-06 18:28 52.65550 12.56165 9838 ft 256 kts 141°
2026-05-06 18:28 52.64237 12.58157 9835 ft 256 kts 141°
2026-05-06 18:29 52.62925 12.60149 9838 ft 256 kts 140°
2026-05-06 18:29 52.61614 12.62140 9835 ft 257 kts 141°
2026-05-06 18:29 52.60303 12.64131 9835 ft 257 kts 141°
2026-05-06 18:29 52.58991 12.66126 9836 ft 257 kts 141°
2026-05-06 18:30 52.57677 12.68121 9838 ft 257 kts 141°
2026-05-06 18:30 52.56365 12.70112 9823 ft 256 kts 141°
2026-05-06 18:30 52.55058 12.72093 9824 ft 255 kts 141°
2026-05-06 18:30 52.53751 12.74069 9824 ft 255 kts 141°
2026-05-06 18:31 52.52445 12.76042 9822 ft 255 kts 141°
2026-05-06 18:31 52.51140 12.78011 9822 ft 255 kts 141°
2026-05-06 18:31 52.49835 12.79980 9820 ft 255 kts 141°
2026-05-06 18:31 52.48532 12.81945 9822 ft 255 kts 141°
2026-05-06 18:32 52.47651 12.83274 9822 ft 255 kts 141°
2026-05-06 18:32 52.46346 12.85241 9828 ft 255 kts 141°
2026-05-06 18:32 52.45037 12.87212 9819 ft 255 kts 141°
2026-05-06 18:32 52.43731 12.89173 9819 ft 255 kts 141°
2026-05-06 18:33 52.42438 12.91112 9765 ft 257 kts 141°
2026-05-06 18:33 52.41086 12.93135 9067 ft 271 kts 141°
2026-05-06 18:33 52.39603 12.94990 8720 ft 264 kts 154°
2026-05-06 18:33 52.37902 12.95903 8376 ft 256 kts 173°
2026-05-06 18:34 52.36149 12.96370 7990 ft 255 kts 175°
2026-05-06 18:34 52.34394 12.96783 7624 ft 254 kts 175°
2026-05-06 18:34 52.32648 12.97182 7270 ft 253 kts 175°
2026-05-06 18:34 52.30902 12.97578 6901 ft 253 kts 175°
2026-05-06 18:35 52.29159 12.97978 6533 ft 253 kts 175°
2026-05-06 18:35 52.27421 12.98363 6223 ft 250 kts 175°
2026-05-06 18:35 52.25704 12.98730 5879 ft 248 kts 175°
2026-05-06 18:35 52.23994 12.99090 5499 ft 248 kts 175°
2026-05-06 18:36 52.22286 12.99449 5164 ft 247 kts 175°
2026-05-06 18:36 52.20603 12.99795 4966 ft 238 kts 175°
2026-05-06 18:36 52.19014 13.00121 4966 ft 222 kts 175°
2026-05-06 18:36 52.17534 13.00432 4969 ft 209 kts 175°
2026-05-06 18:37 52.16100 13.00753 4970 ft 207 kts 175°
2026-05-06 18:37 52.14676 13.01070 4970 ft 206 kts 175°
2026-05-06 18:37 52.13254 13.01382 4970 ft 206 kts 175°
2026-05-06 18:37 52.11879 13.01695 5000 ft 191 kts 175°
2026-05-06 18:38 52.10621 13.02000 4959 ft 175 kts 175°
2026-05-06 18:38 52.09474 13.02289 4952 ft 159 kts 175°
2026-05-06 18:38 52.08396 13.02568 4962 ft 156 kts 175°
2026-05-06 18:38 52.07328 13.02845 4968 ft 156 kts 175°
2026-05-06 18:39 52.06257 13.03111 4968 ft 156 kts 175°
2026-05-06 18:39 52.05186 13.03384 4970 ft 156 kts 175°
2026-05-06 18:39 52.04114 13.03661 4972 ft 156 kts 175°
2026-05-06 18:40 52.02000 13.04207 4972 ft 154 kts 175°
2026-05-06 18:40 52.00940 13.04454 4967 ft 154 kts 175°
2026-05-06 18:40 51.99877 13.04690 4971 ft 154 kts 175°
2026-05-06 18:40 51.98814 13.04936 4966 ft 154 kts 175°
2026-05-06 18:41 51.97757 13.05186 4968 ft 153 kts 174°
2026-05-06 18:41 51.96700 13.05427 4968 ft 154 kts 175°
2026-05-06 18:41 51.95639 13.05666 4960 ft 154 kts 175°
2026-05-06 18:41 51.94578 13.05898 4968 ft 154 kts 175°
2026-05-06 18:42 51.93518 13.06128 4966 ft 154 kts 175°
2026-05-06 18:42 51.92457 13.06366 4961 ft 153 kts 175°
2026-05-06 18:42 51.91403 13.06553 4947 ft 150 kts 191°
2026-05-06 18:42 51.90556 13.05765 4936 ft 144 kts 239°
2026-05-06 18:43 51.90262 13.04218 4919 ft 142 kts 268°
2026-05-06 18:43 51.90438 13.02569 4687 ft 154 kts 298°
2026-05-06 18:43 51.91177 13.01387 4648 ft 155 kts 334°
2026-05-06 18:43 51.92229 13.00971 4647 ft 158 kts 349°
2026-05-06 18:44 51.93331 13.00840 4627 ft 159 kts 354°
2026-05-06 18:44 51.94435 13.00757 4627 ft 158 kts 353°
2026-05-06 18:44 51.95536 13.00677 4634 ft 158 kts 355°
2026-05-06 18:44 51.96631 13.00581 4622 ft 158 kts 354°
2026-05-06 18:45 51.97730 13.00493 4630 ft 158 kts 354°
2026-05-06 18:45 51.98830 13.00410 4628 ft 158 kts 354°
2026-05-06 18:45 51.99933 13.00342 4631 ft 159 kts 355°
2026-05-06 18:45 52.01036 13.00293 4635 ft 158 kts 354°
2026-05-06 18:46 52.02136 13.00307 4610 ft 159 kts
2026-05-06 18:46 52.03063 13.01223 4650 ft 161 kts 45°
2026-05-06 18:46 52.03920 13.02435 4681 ft 169 kts 31°
2026-05-06 18:46 52.05014 13.03536 4574 ft 208 kts 28°
2026-05-06 18:47 52.06349 13.04774 4608 ft 231 kts 27°
2026-05-06 18:47 52.07784 13.06077 4608 ft 239 kts 26°
2026-05-06 18:47 52.09348 13.06885 4635 ft 237 kts 358°
2026-05-06 18:47 52.10918 13.06298 4641 ft 232 kts 332°
2026-05-06 18:48 52.12330 13.05017 4637 ft 232 kts 327°
2026-05-06 18:48 52.13691 13.03666 4631 ft 232 kts 326°
2026-05-06 18:48 52.15062 13.02273 4633 ft 232 kts 326°
2026-05-06 18:48 52.16430 13.00887 4492 ft 229 kts 326°
2026-05-06 18:49 52.17787 12.99521 4141 ft 229 kts 326°
2026-05-06 18:49 52.19142 12.98143 3785 ft 229 kts 326°
2026-05-06 18:49 52.20487 12.96759 3457 ft 229 kts 327°
2026-05-06 18:49 52.21849 12.95409 3105 ft 229 kts 336°
2026-05-06 18:50 52.23393 12.95105 2972 ft 227 kts 12°
2026-05-06 18:50 52.24776 12.96261 2983 ft 227 kts 45°
2026-05-06 18:50 52.25545 12.98478 2987 ft 227 kts 77°
2026-05-06 18:50 52.25776 13.00940 2978 ft 212 kts 84°
2026-05-06 18:51 52.25905 13.03240 3004 ft 195 kts 85°
2026-05-06 18:51 52.26013 13.05348 2984 ft 178 kts 85°
2026-05-06 18:51 52.26110 13.07261 2970 ft 161 kts 85°
2026-05-06 18:51 52.26198 13.09024 2973 ft 153 kts 85°
2026-05-06 18:52 52.26283 13.10736 2978 ft 150 kts 85°
2026-05-06 18:52 52.26452 13.12411 2981 ft 149 kts 75°
2026-05-06 18:52 52.26747 13.14038 2994 ft 149 kts 71°
2026-05-06 18:52 52.27095 13.15661 3008 ft 161 kts 70°
2026-05-06 18:53 52.27510 13.17468 2983 ft 177 kts 69°
2026-05-06 18:53 52.27960 13.19363 2976 ft 180 kts 69°
2026-05-06 18:53 52.28418 13.21275 2987 ft 181 kts 69°
2026-05-06 18:53 52.28881 13.23188 2770 ft 186 kts 69°
2026-05-06 18:54 52.29412 13.25177 2183 ft 200 kts 67°
2026-05-06 18:54 52.30007 13.27210 1973 ft 194 kts 63°
2026-05-06 18:54 52.30492 13.29099 1890 ft 171 kts 72°
2026-05-06 18:54 52.30842 13.30891 1708 ft 155 kts 71°
2026-05-06 18:55 52.31171 13.32463 1589 ft 140 kts 70°
2026-05-06 18:55 52.31490 13.33936 1576 ft 135 kts 68°
2026-05-06 18:55 52.31815 13.35360 1565 ft 134 kts 68°
2026-05-06 18:55 52.32148 13.36783 1453 ft 133 kts 69°
2026-05-06 18:56 52.32482 13.38193 1342 ft 133 kts 68°
2026-05-06 18:56 52.32814 13.39593 1141 ft 132 kts 68°
2026-05-06 18:56 52.33147 13.40989 963 ft 131 kts 68°
2026-05-06 18:56 52.33481 13.42388 783 ft 132 kts 69°
2026-05-06 18:57 52.33812 13.43778 604 ft 132 kts 68°
2026-05-06 18:57 52.34135 13.45173 403 ft 128 kts 68°
2026-05-06 18:57 52.34443 13.46456 239 ft 117 kts 67°
2026-05-06 18:57 52.34725 13.47624 158 ft 100 kts 68°
2026-05-06 18:58 52.34863 13.48187 154 ft 39 kts 69°
2026-05-06 18:58 52.34989 13.48735 154 ft 48 kts 70°
2026-05-06 18:58 52.35099 13.49191 154 ft 30 kts 62°
2026-05-06 18:58 52.35240 13.49383 154 ft 2 kts 35°
2026-05-06 19:00 52.35298 13.49450 154 ft 26 kts 35°
2026-05-06 19:00 52.35431 13.49637 154 ft 24 kts 73°
2026-05-06 19:00 52.35498 13.49874 154 ft 23 kts 67°
2026-05-06 19:00 52.35538 13.50040 154 ft 24 kts 69°
2026-05-06 19:01 52.35620 13.50383 154 ft 25 kts 68°
2026-05-06 19:01 52.35684 13.50648 154 ft 25 kts 69°
2026-05-06 19:01 52.35797 13.50814 154 ft 23 kts 351°
2026-05-06 19:01 52.35943 13.50707 154 ft 24 kts 341°
2026-05-06 19:02 52.36103 13.50617 155 ft 25 kts 339°
2026-05-06 19:02 52.36269 13.50511 155 ft 26 kts 338°
2026-05-06 19:02 52.36436 13.50404 157 ft 20 kts 338°
2026-05-06 19:02 52.36486 13.50442 155 ft 6 kts 95°
2026-05-06 19:03 52.36500 13.50499 155 ft 6 kts 64°
2026-05-06 19:03 52.36504 13.50515 155 ft 1 kts 65°
2026-05-06 19:03 52.36505 13.50520 155 ft 0 kts 67°